{"data":{"norad_id":46718,"intl_designator":"2020-073BA","name":"STARLINK-1821","alt_names":[],"object_type":"PAYLOAD","status":"ACTIVE","operator":null,"country":"US","launch_date":"2020-10-18","launch_site_code":"AFETR","launch_vehicle":null,"mission":null,"orbit_class":"UNKNOWN","rcs_meters":null,"size_class":null,"mass_kg":null,"dimensions":null,"purposes":["comms"],"wikipedia_slug":null,"has_3d_model":false,"image_url":null,"decayed_at":null,"tle_current":{"epoch":"2026-05-25T05:04:04.211040Z","epoch_age_seconds":60354,"freshness":"FRESH","line1":"1 46718U 20073BA  26145.21115985  .00089456  00000+0  16659-2 0  9998","line2":"2 46718  53.0446 223.0573 0002967  16.3459 343.7643 15.48116275309163","mean_motion":15.48116275,"eccentricity":0.0002967,"inclination_deg":53.0446,"raan_deg":223.0573,"arg_perigee_deg":16.3459,"mean_anomaly_deg":343.7643,"bstar":0.0016659,"rev_number":30916,"period_min":93.016269078368,"perigee_km":420.21920704953,"apogee_km":424.25454890872,"semimajor_km":6800.3738779791,"source":"CELESTRAK","updated_at":"2026-05-25T13:38:16.517929Z"}}}